User: anonymous   Login
Location: Unspecified
(0.0000°N, 0.0000°E)
Time: 11:20:35
(UTC+00:00)
Language:

DIAMOND RED - Orbit

View from above orbital plane
View from above orbital plane
View from above satellite
View from above satellite

Ground track
Ground track

The orbit data is extracted from the following two-line orbital elements,

1 42783U 17036U   19082.14719997  .00001052  00000-0  49013-4 0  9997
2 42783  97.3622 141.6595 0012542 170.5366 189.6109 15.22006685 96934
Epoch (UTC): 23 March 2019 03:31:58
Eccentricity: 0.0012542
inclination: 97.3622°
perigee height: 491 km
apogee height: 508 km
right ascension of ascending node: 141.6595°
argument of perigee: 170.5366°
revolutions per day: 15.22006685
mean anomaly at epoch: 189.6109°
orbit number at epoch: 9693

The dashed part of the orbit path shows where the satellite is in the earth's shadow,  

DLR